Location: Unspecified
(0.0000°N, 0.0000°E)
Time: 02:41:16
(UTC+00:00)

Tiros 1 - Pass Details

Date: 17 April 2026
Orbit: 618 x 648 km, 48.4° (Epoch: 15 May)

Event Time Altitude Azimuth Distance (km) Brightness Sun altitude
Rises 19:45:33 0° 300° (WNW) 2,942 11.7 -26.0°
Reaches altitude 10° 19:48:11 10° 288° (WNW) 2,036 10.7 -26.7°
Maximum altitude 19:52:06 26° 231° (SW) 1,263 8.9 -27.6°
Enters shadow 19:53:14 24° 207° (SSW) 1,345 8.9 -27.9°
